Theta_e
356 360 351 342 338 339 342 345 345 343 339 332 332 335 338 338 335 330 334 346 346 346 344 345 344 344 344 339 336 332 325 324 326 328 328 326 328 328 331 335 334 339 326
357 361 349 340 338 339 343 345 345 342 336 332 334 335 338 335 334 330 341 346 347 346 345 344 344 344 340 334 335 326 325 329 335 335 334 334 332 331 331 331 335 342 328
357 361 352 340 339 340 344 345 344 339 336 336 336 337 334 334 332 335 342 346 347 346 345 343 341 336 327 330 326 324 326 332 335 335 344 345 343 333 334 331 329 329 331
359 360 355 339 339 340 343 344 342 340 340 342 339 336 332 332 332 336 344 346 346 346 342 339 333 327 325 324 324 324 328 332 332 332 345 343 342 335 336 336 336 337 337
360 361 357 339 339 339 341 343 341 342 343 344 343 339 333 330 334 336 341 343 344 343 340 337 333 325 325 324 325 327 327 328 334 346 347 345 346 343 340 340 344 342 340
360 360 358 341 337 338 340 342 342 343 344 345 344 341 335 331 334 336 338 342 342 342 339 338 331 326 325 326 329 336 340 345 346 349 347 348 349 346 341 338 337 338 338
359 358 359 342 336 335 337 340 341 342 343 345 345 341 336 332 331 336 339 340 341 340 340 339 331 329 327 328 328 334 344 345 348 345 349 350 349 345 338 337 338 338 339
357 357 358 348 337 333 333 334 336 339 342 344 344 341 338 333 332 336 340 341 341 341 341 339 330 329 329 329 339 343 341 344 345 344 347 349 345 339 336 338 338 335 334
357 356 357 352 347 335 332 330 331 333 338 342 342 340 339 333 331 336 338 342 344 343 341 334 329 328 329 333 338 338 336 340 343 343 346 346 341 337 338 336 332 329 331
357 357 356 353 350 346 345 332 329 327 331 335 337 339 337 332 331 336 338 341 343 340 340 330 328 328 328 328 330 331 331 335 340 343 344 348 340 337 336 332 328 327 327
358 357 356 354 352 348 347 344 335 331 331 333 337 337 337 341 342 343 342 344 340 342 333 329 328 328 328 328 327 326 327 335 337 338 343 345 337 338 334 330 327 326 326
358 357 356 355 354 351 347 348 344 344 343 342 342 345 342 341 343 342 343 346 340 340 331 331 329 327 327 332 331 327 330 332 333 338 345 342 339 337 333 330 326 326 327
344 357 355 356 355 352 349 349 345 345 343 342 342 346 343 342 343 343 347 345 345 338 338 335 334 332 330 331 330 329 333 337 341 342 347 339 340 337 332 330 326 326 326
329 344 355 356 355 354 350 349 347 345 345 344 344 346 342 344 345 345 344 344 342 338 336 335 333 331 333 334 334 336 341 344 344 343 347 339 340 337 333 330 328 327 327
320 325 346 356 356 355 354 350 349 346 346 346 346 346 342 343 344 345 343 341 340 338 337 337 334 335 336 339 340 343 345 346 345 345 345 341 339 336 333 330 329 328 328
319 321 326 348 351 355 354 352 350 349 346 347 346 346 345 343 343 344 345 344 341 338 337 336 334 335 337 340 343 346 346 346 346 345 344 346 338 336 333 331 330 331 331
319 319 322 327 345 351 353 354 352 350 348 347 345 346 347 344 343 344 343 342 340 339 337 338 334 336 339 342 345 348 348 348 347 346 345 344 341 335 334 332 331 333 334
319 319 321 321 324 345 351 354 354 351 350 347 346 345 347 346 344 344 341 341 340 340 339 337 335 334 340 343 345 348 348 348 347 346 345 343 340 341 338 332 330 329 332
318 319 321 322 323 336 350 352 353 352 352 349 347 345 347 347 346 344 341 340 341 341 339 336 335 337 340 344 345 349 349 349 348 347 345 342 341 340 340 337 332 330 330
318 319 322 323 325 336 346 350 352 354 353 351 349 346 346 346 346 345 342 342 343 341 339 338 336 338 342 344 345 348 346 345 344 343 342 341 340 339 337 336 335 333 329
318 319 323 324 326 332 338 349 352 353 352 352 351 349 347 348 346 346 343 343 343 339 338 340 340 342 345 346 347 344 341 340 340 339 339 337 333 332 332 331 330 329 325
319 319 321 324 327 329 333 344 351 350 351 351 351 351 350 349 347 346 344 342 342 338 340 342 341 340 345 347 346 346 346 338 335 333 333 332 330 329 326 322 320 320 320
320 319 321 322 324 331 332 339 346 349 349 349 349 348 350 349 347 347 346 341 341 339 339 343 343 342 344 346 346 347 350 350 339 330 329 328 327 325 321 319 318 317 316
319 319 319 321 323 326 336 334 343 345 344 344 346 347 347 349 348 347 346 344 341 339 336 345 344 342 345 346 345 345 344 340 341 337 327 325 323 322 320 318 316 313 311
322 322 322 322 322 325 335 340 341 344 342 343 345 346 346 348 348 347 346 345 342 339 337 344 345 347 347 345 346 344 341 339 337 338 339 329 324 321 318 317 314 313 310
321 322 323 324 325 324 331 340 342 341 343 344 346 345 345 346 346 346 344 345 343 341 339 344 347 348 347 347 347 342 341 340 337 337 336 335 330 323 318 315 314 311 308
Wind_Speed
13 22 30 28 26 26 28 31 31 29 26 26 28 28 27 26 26 27 27 23 21 18 16 15 16 15 12 10 10 10 12 13 13 12 11 10 9 8 7 5 6 3 0
18 22 32 29 27 27 29 32 31 30 28 28 28 29 27 27 27 28 26 23 19 17 16 15 15 14 11 10 11 12 13 14 13 12 11 8 7 7 5 3 6 0 1
19 22 27 29 27 28 30 32 32 30 30 29 28 28 27 27 27 28 25 23 19 16 15 14 13 12 11 12 12 14 14 14 12 11 11 6 6 5 4 1 0 1 2
19 21 25 29 27 28 30 32 33 32 31 29 27 27 26 26 27 27 25 22 18 15 13 13 12 12 13 13 14 15 15 13 11 9 4 5 5 3 3 1 2 3 4
19 20 23 31 29 29 30 31 33 32 30 28 27 26 26 25 26 26 23 20 16 14 13 12 11 12 13 14 15 15 14 12 9 5 4 4 2 2 2 1 4 7 7
17 20 21 31 30 29 29 30 32 30 28 27 26 26 25 24 25 24 22 19 15 14 13 11 11 11 13 15 16 15 12 10 7 4 3 5 4 2 1 2 3 4 6
17 19 17 31 30 30 29 29 29 28 27 26 25 24 24 23 24 23 21 18 15 14 12 11 11 11 13 14 15 13 11 9 6 1 1 4 6 5 1 1 4 5 6
16 18 18 26 28 29 28 27 25 25 25 26 25 23 22 21 22 23 20 17 15 13 11 10 10 11 12 14 14 13 11 8 4 2 1 4 6 5 2 1 3 5 5
14 17 18 21 22 26 26 25 25 24 24 25 24 23 22 22 23 23 20 17 15 12 11 11 11 11 12 14 14 13 12 9 6 3 4 5 6 5 3 1 3 3 2
13 16 18 20 21 20 18 23 23 24 24 25 24 23 23 24 23 23 21 18 15 13 12 11 11 12 12 12 13 13 12 10 7 5 4 4 7 5 2 1 1 2 2
10 15 18 20 21 21 19 18 22 22 23 24 23 24 23 18 18 19 18 18 16 14 13 12 12 12 12 12 12 13 12 10 9 7 5 6 7 5 3 1 1 2 3
9 15 18 19 21 22 20 19 19 18 18 19 20 20 19 18 18 17 18 18 17 15 14 13 13 12 12 10 10 12 11 10 9 6 4 9 7 5 3 1 2 2 2
4 11 18 19 20 21 21 20 21 20 19 19 20 20 20 18 17 17 16 16 14 14 12 13 12 12 12 11 11 12 11 10 8 7 7 10 8 6 5 3 3 3 2
6 7 14 19 21 23 22 22 22 22 22 21 22 22 21 19 18 19 17 16 16 16 15 14 14 13 13 12 11 11 10 9 7 7 7 11 8 7 6 5 4 4 4
8 9 13 18 21 24 25 24 24 25 25 23 23 24 24 22 20 19 18 16 16 16 16 14 13 13 13 13 12 11 10 9 7 7 6 9 9 8 7 7 6 5 5
9 9 11 17 22 23 25 26 26 25 25 25 24 25 26 23 21 21 19 18 17 16 15 15 14 14 14 13 12 11 10 10 9 8 6 8 9 9 9 8 9 8 7
13 11 9 16 21 25 28 28 27 26 26 27 27 26 26 25 23 22 21 19 18 17 15 14 14 14 14 13 11 10 10 10 10 8 7 6 7 10 11 11 11 10 10
17 16 14 14 20 25 27 28 29 29 28 28 27 26 28 27 24 22 22 22 20 18 17 16 15 16 15 15 13 12 11 10 10 9 8 8 8 7 7 11 11 12 12
22 21 18 16 18 23 26 27 29 29 30 29 28 28 28 28 26 23 22 21 20 19 18 17 16 16 17 15 15 9 10 8 9 10 7 8 8 7 8 6 10 11 11
24 23 21 17 16 23 25 26 26 27 28 30 30 29 27 29 29 25 21 20 21 20 19 18 16 17 16 16 15 9 5 6 6 6 6 7 6 6 5 6 6 1 5
23 22 21 18 16 21 25 23 25 25 27 30 30 30 30 28 27 27 24 22 22 22 21 21 18 17 16 14 12 9 5 4 5 5 6 6 5 4 2 2 4 4 3
22 22 20 18 17 18 24 25 27 26 26 27 26 26 29 28 27 28 26 25 25 22 21 20 22 20 20 18 17 12 5 6 7 6 6 6 6 5 3 2 1 2 3
19 21 21 19 16 18 22 23 23 21 22 19 22 30 28 29 28 28 27 27 26 25 24 23 24 22 21 17 19 11 5 6 10 7 7 7 7 6 5 4 1 2 4
11 14 18 18 17 17 19 22 23 24 25 26 27 25 30 30 30 28 27 27 28 27 27 26 26 26 24 21 19 19 10 4 4 4 8 9 8 7 6 6 3 3 5
7 7 9 11 13 16 17 21 21 24 22 21 22 23 29 28 32 31 28 27 27 27 27 26 28 28 27 24 21 15 13 10 9 4 7 7 9 9 7 5 3 4 7
9 8 8 10 11 10 16 18 22 21 23 20 24 23 24 28 32 32 31 29 29 29 29 30 27 24 25 20 18 15 12 7 10 13 7 4 7 9 7 5 4 6 7
Wind_Direction
167 169 175 174 172 173 175 174 173 169 164 161 159 159 161 158 155 151 149 146 145 145 144 146 148 151 149 145 142 139 135 133 128 129 128 121 118 119 118 118 100 104 164
166 171 176 177 173 173 174 174 173 168 164 163 163 162 164 160 158 155 154 151 148 147 148 149 152 155 156 155 148 144 141 138 136 130 121 114 125 119 111 110 118 352 282
169 170 175 177 176 174 175 174 173 169 167 165 165 166 164 162 162 159 158 156 155 153 156 159 160 161 159 157 155 150 148 146 143 135 121 147 130 120 119 109 29 284 316
169 170 174 180 179 175 177 176 175 173 171 168 168 169 168 166 166 165 163 162 162 161 163 164 164 162 159 159 155 153 150 150 150 144 144 143 137 120 117 71 331 322 310
169 171 176 181 182 178 179 179 179 177 176 174 173 173 171 170 170 169 169 168 169 165 167 167 169 165 161 161 155 153 149 148 148 148 171 169 169 176 110 29 339 327 311
170 171 185 184 185 183 180 182 182 181 181 180 179 176 174 174 174 173 172 171 169 166 171 171 172 167 165 164 159 152 158 165 164 219 235 225 210 196 56 357 324 305 303
174 174 182 186 188 187 185 186 186 185 184 185 184 181 179 178 177 176 176 173 170 171 173 174 174 174 170 170 169 172 175 177 210 201 209 194 173 210 182 325 316 311 307
177 179 179 184 190 192 190 189 189 188 188 188 187 186 185 183 180 179 180 177 175 177 179 181 182 181 180 181 181 181 188 185 226 231 177 150 162 173 183 254 317 325 325
184 183 180 182 186 195 194 192 191 191 191 192 192 191 189 186 184 184 185 185 184 185 188 188 187 188 189 190 192 195 202 206 245 225 206 184 183 179 199 275 326 345 18
189 187 188 185 187 188 193 196 194 193 193 195 195 195 191 188 188 190 190 192 193 191 193 194 192 193 195 198 205 210 212 218 236 219 213 157 192 192 206 272 30 68 80
192 194 193 188 191 192 190 195 194 197 195 196 195 195 192 187 191 195 192 203 197 193 194 196 197 197 198 204 208 213 215 225 227 231 219 210 191 200 221 140 60 94 107
207 207 201 198 198 195 193 191 189 192 193 191 190 191 189 194 195 198 200 205 199 197 195 198 199 201 197 207 213 213 212 222 218 215 207 205 198 216 206 186 154 132 131
251 216 215 202 206 203 200 193 191 195 197 197 196 194 195 198 198 198 202 204 200 205 201 201 203 203 208 213 207 204 209 206 212 204 196 207 205 219 206 203 184 174 190
272 237 226 218 209 210 206 201 198 197 199 199 200 199 197 199 200 201 203 202 203 203 205 203 205 207 211 212 210 207 210 210 211 207 197 205 208 218 208 215 205 203 210
259 258 230 224 218 215 212 207 206 204 201 204 202 203 199 202 201 201 205 205 206 205 203 206 208 206 207 209 212 211 215 215 212 220 212 217 212 218 221 221 222 223 230
280 276 255 225 224 224 219 215 210 207 204 204 205 205 203 203 203 204 204 205 205 208 207 206 205 206 208 210 212 218 222 218 210 217 230 199 222 221 227 224 233 241 248
273 277 271 247 230 223 222 218 216 214 210 207 207 205 203 205 205 203 204 209 210 207 206 205 203 205 210 213 216 213 218 214 213 214 227 245 229 227 231 229 239 251 256
261 267 268 270 243 227 223 220 218 218 214 213 211 209 205 204 204 207 208 208 207 203 207 208 206 204 210 212 217 222 221 209 215 217 233 244 245 251 242 246 246 255 262
255 260 263 260 247 230 223 225 223 221 217 216 213 211 208 203 206 207 212 210 204 201 203 206 210 208 206 216 218 211 222 219 218 230 235 242 249 252 265 259 268 274 279
260 253 253 251 248 228 225 224 225 224 219 219 216 214 209 205 204 205 209 208 205 202 203 203 209 209 214 213 217 197 184 194 210 221 227 240 251 250 256 257 259 267 299
258 252 247 241 237 226 222 219 219 215 214 219 220 215 210 205 205 207 205 203 206 211 205 197 200 210 210 208 197 191 163 179 200 219 222 229 231 228 220 238 246 256 308
261 259 254 242 235 230 227 221 220 220 221 224 224 216 211 211 206 209 206 201 204 205 207 200 200 202 216 206 212 215 195 190 200 206 219 222 222 217 221 248 255 340 321
257 254 248 244 242 228 226 219 218 222 221 218 217 220 216 215 212 210 209 202 199 203 205 204 203 202 209 209 222 212 224 237 164 197 211 215 213 215 221 242 253 332 330
277 270 261 256 249 234 222 227 211 216 221 223 223 219 213 216 215 213 212 208 196 204 205 199 209 202 216 205 212 228 248 304 213 179 218 225 218 219 231 241 263 316 328
320 310 291 294 271 248 223 220 214 221 228 224 220 216 209 213 214 215 213 211 207 206 207 204 204 203 211 217 206 211 214 240 242 263 255 197 226 229 236 249 271 305 315
329 338 341 333 331 274 242 228 224 222 223 216 220 212 209 211 210 212 213 213 211 210 204 203 205 203 219 219 201 207 196 187 234 235 253 248 238 195 222 241 281 296 310